Weather History for KLFK - April, 2013

Change the Weather History Date:

Tuesday, April 30, 2013

  Actual Average Record
Temperature  
Mean Temperature 72 °F 70 °F  
Max Temperature 83 °F 81 °F 95 °F (1933)
Min Temperature 61 °F 59 °F 37 °F (1908)
Degree Days  
Heating Degree Days 0 1  
Month to date heating degree days 93 70  
Since 1 July heating degree days 1590 1913  
Cooling Degree Days 7 6  
Month to date cooling degree days 134 116  
Year to date cooling degree days 201 176  
Growing Degree Days 22 (Base 50)    
Moisture  
Dew Point 64 °F    
Average Humidity 74    
Maximum Humidity 93    
Minimum Humidity 54    
Precipitation  
Precipitation T in 0.11 in 4.32 in (1962)
Month to date precipitation 2.19 3.05  
Year to date precipitation 11.54 14.88  
Snow  
Snow 0.00 in - - ()
Month to date snowfall 0.0  
Since 1 July snowfall 0.0  
Snow Depth 0.00 in    
Sea Level Pressure  
Sea Level Pressure 29.84 in    
Wind  
Wind Speed 6 mph (ESE)    
Max Wind Speed 21 mph    
Max Gust Speed 25 mph    
Visibility 6 miles    
Events Fog , Rain    
T = Trace of Precipitation, MM = Missing Value Source: NWS Daily Summary

Daily Weather History Graph

Daily Weather History Graph

Search for Another Location

Airport or City:

Trip Planner

Search our weather history database for the weather conditions in past years. The results will help you decide how hot, cold, wet, or windy it might be!

Date:

Astronomy

Apr. 30, 2013 Rise Set
Actual Time 6:34 AM CDT 7:57 PM CDT
Civil Twilight 6:09 AM CDT 8:23 PM CDT
Nautical Twilight 5:38 AM CDT 8:54 PM CDT
Astronomical Twilight 5:06 AM CDT 9:26 PM CDT
Moon 12:17 AM CDT (4/30) 11:08 AM CDT (4/30)
Length of Visible Light 14h 14m
Length of Day
13h 22m
Waning Gibbous, 70% of the Moon is Illuminated
Apr 30
Waning Gibbous
May 2
Last Quarter
May 9
New
May 17
First Quarter
May 24
Full

Hourly Weather History & Observations

Time (CDT) Temp. Heat Index Dew Point Humidity Pressure Visibility Wind Dir Wind Speed Gust Speed Precip Events Conditions
12:53 AM 66.0 °F - 61.0 °F 84% 29.86 in 10.0 mi Calm Calm - N/A   Clear
1:53 AM 66.0 °F - 61.0 °F 84% 29.86 in 10.0 mi Calm Calm - N/A   Clear
2:53 AM 63.0 °F - 60.1 °F 90% 29.84 in 6.0 mi Calm Calm - N/A   Clear
3:53 AM 63.0 °F - 60.1 °F 90% 29.82 in 5.0 mi Calm Calm - N/A   Clear
5:41 AM 62.6 °F - 60.8 °F 94% 29.84 in 2.5 mi East 4.6 mph - N/A   Clear
5:49 AM 62.6 °F - 60.8 °F 94% 29.84 in 3.0 mi East 4.6 mph - N/A   Partly Cloudy
5:53 AM 62.1 °F - 60.1 °F 93% 29.83 in 2.5 mi East 4.6 mph - N/A   Scattered Clouds
6:03 AM 62.6 °F - 60.8 °F 94% 29.84 in 1.8 mi East 3.5 mph - N/A   Mostly Cloudy
6:08 AM 62.6 °F - 60.8 °F 94% 29.84 in 0.8 mi Calm Calm - N/A   Mist
6:21 AM 62.6 °F - 60.8 °F 94% 29.84 in 0.2 mi Calm Calm - N/A Fog Fog
6:48 AM 64.4 °F - 62.6 °F 94% 29.84 in 0.2 mi Calm Calm - N/A Fog Fog
6:53 AM 64.0 °F - 62.1 °F 93% 29.84 in 0.5 mi East 3.5 mph - N/A Fog Fog
7:00 AM 62.6 °F - 60.8 °F 94% 29.85 in 2.0 mi Calm Calm - N/A   Overcast
7:08 AM 64.4 °F - 62.6 °F 94% 29.85 in 3.0 mi Calm Calm - N/A   Overcast
7:16 AM 64.4 °F - 62.6 °F 94% 29.85 in 1.8 mi ESE 3.5 mph - N/A   Overcast
7:37 AM 66.2 °F - 64.4 °F 94% 29.85 in 3.0 mi ESE 3.5 mph - N/A   Overcast
7:53 AM 66.9 °F - 64.0 °F 90% 29.84 in 4.0 mi East 4.6 mph - N/A   Overcast
8:01 AM 66.2 °F - 64.4 °F 94% 29.85 in 4.0 mi East 4.6 mph - N/A   Mostly Cloudy
8:24 AM 68.0 °F - 64.4 °F 88% 29.85 in 3.0 mi East 5.8 mph - N/A   Mostly Cloudy
8:34 AM 68.0 °F - 66.2 °F 94% 29.85 in 2.5 mi East 4.6 mph - N/A   Mostly Cloudy
8:53 AM 69.1 °F - 66.0 °F 90% 29.84 in 6.0 mi SE 5.8 mph - N/A   Overcast
9:48 AM 71.6 °F - 66.2 °F 83% 29.86 in 10.0 mi SE 5.8 mph - N/A   Mostly Cloudy
9:53 AM 71.1 °F - 66.0 °F 84% 29.86 in 10.0 mi SSE 5.8 mph - N/A   Mostly Cloudy
10:01 AM 71.6 °F - 66.2 °F 83% 29.87 in 10.0 mi SSE 6.9 mph - N/A   Overcast
10:46 AM 73.4 °F - 66.2 °F 78% 29.88 in 9.0 mi SE 5.8 mph - N/A   Overcast
10:53 AM 73.0 °F - 66.9 °F 81% 29.87 in 9.0 mi SE 5.8 mph - N/A   Overcast
11:16 AM 73.4 °F - 66.2 °F 78% 29.87 in 10.0 mi SE 3.5 mph - N/A   Overcast
11:30 AM 75.2 °F - 66.2 °F 73% 29.87 in 10.0 mi ESE 4.6 mph - N/A   Mostly Cloudy
11:53 AM 77.0 °F - 64.9 °F 66% 29.85 in 10.0 mi SSE 5.8 mph - N/A   Mostly Cloudy
12:53 PM 81.0 °F 82.5 °F 64.0 °F 56% 29.82 in 10.0 mi ENE 9.2 mph - N/A   Partly Cloudy
1:53 PM 81.0 °F 82.2 °F 63.0 °F 54% 29.80 in 10.0 mi East 5.8 mph - N/A   Mostly Cloudy
2:53 PM 82.0 °F 83.4 °F 64.0 °F 54% 29.79 in 10.0 mi East 13.8 mph 17.3 mph N/A   Overcast
3:53 PM 81.0 °F 82.5 °F 64.0 °F 56% 29.77 in 10.0 mi SE 9.2 mph - N/A   Mostly Cloudy
4:53 PM 80.1 °F 81.7 °F 64.0 °F 58% 29.76 in 10.0 mi ENE 4.6 mph - 0.00 in   Partly Cloudy
5:53 PM 75.0 °F - 66.0 °F 73% 29.77 in 10.0 mi SE 3.5 mph - 0.00 in   Overcast
6:53 PM 75.0 °F - 64.0 °F 69% 29.78 in 10.0 mi NNE 5.8 mph - N/A   Scattered Clouds
7:53 PM 72.0 °F - 64.9 °F 78% 29.81 in 10.0 mi East 19.6 mph 25.3 mph N/A   Overcast
8:53 PM 66.9 °F - 64.0 °F 90% 29.83 in 9.0 mi ESE 10.4 mph - N/A Rain Light Rain
9:53 PM 68.0 °F - 64.9 °F 90% 29.83 in 10.0 mi SE 9.2 mph - N/A   Partly Cloudy
10:53 PM 68.0 °F - 64.9 °F 90% 29.84 in 9.0 mi NNE 4.6 mph - N/A   Scattered Clouds
11:09 PM 68.0 °F - 64.4 °F 88% 29.85 in 7.0 mi Calm Calm - N/A   Mostly Cloudy
11:48 PM 68.0 °F - 64.4 °F 88% 29.85 in 10.0 mi Variable 3.5 mph - N/A   Scattered Clouds